Weather History for KPAH - March, 2011

Change the Weather History Date:

Friday, March 11, 2011

  Actual Average Record
Temperature  
Mean Temperature 42 °F 47 °F  
Max Temperature 56 °F 57 °F 79 °F (2006)
Min Temperature 28 °F 36 °F 16 °F (1998)
Degree Days  
Heating Degree Days 23 18  
Month to date heating degree days 217 219  
Since 1 July heating degree days 3671 3515  
Cooling Degree Days 0 0  
Month to date cooling degree days 0 0  
Year to date cooling degree days 0 0  
Moisture  
Dew Point 29 °F    
Average Humidity 59    
Maximum Humidity 85    
Minimum Humidity 32    
Precipitation  
Precipitation 0.00 in 0.12 in 1.68 in (1943)
Month to date precipitation 3.98 1.30  
Year to date precipitation 10.91 8.89  
Snow  
Snow 0.00 in 0.10 in 2.00 in (1960)
Month to date snowfall 0.0 0.4  
Since 1 July snowfall 18.9 8.9  
Snow Depth 0.00 in    
Sea Level Pressure  
Sea Level Pressure 30.15 in    
Wind  
Wind Speed 7 mph (SW)    
Max Wind Speed 15 mph    
Max Gust Speed 18 mph    
Visibility 9 miles    
Events      
T = Trace of Precipitation, MM = Missing Value Source: NWS Daily Summary

Daily Weather History Graph

Daily Weather History Graph

Search for Another Location

Airport or City:

Trip Planner

Search our weather history database for the weather conditions in past years. The results will help you decide how hot, cold, wet, or windy it might be!

Date:

Astronomy

Mar. 11, 2011 Rise Set
Actual Time 6:12 AM CST 5:58 PM CST
Civil Twilight 5:46 AM CST 6:24 PM CST
Nautical Twilight 5:16 AM CST 6:54 PM CST
Astronomical Twilight 4:46 AM CST 7:24 PM CST
Moon 9:35 AM CST (3/11) No Moon Set
Length of Visible Light 12h 38m
Length of Day
11h 46m
Waxing Crescent, 38% of the Moon is Illuminated
Mar 11
Waxing Crescent
Mar 12
First Quarter
Mar 19
Full
Mar 26
Last Quarter
Apr 3
New

Hourly Weather History & Observations

Time (CST) Temp. Windchill Dew Point Humidity Pressure Visibility Wind Dir Wind Speed Gust Speed Precip Events Conditions
12:53 AM 32.0 °F 27.5 °F 26.1 °F 79% 30.22 in 10.0 mi West 4.6 mph - N/A   Clear
1:53 AM 30.9 °F 26.2 °F 26.1 °F 82% 30.22 in 9.0 mi West 4.6 mph - N/A   Scattered Clouds
2:53 AM 30.0 °F 24.1 °F 26.1 °F 85% 30.20 in 8.0 mi WSW 5.8 mph - N/A   Scattered Clouds
3:53 AM 30.0 °F 26.5 °F 26.1 °F 85% 30.20 in 8.0 mi SW 3.5 mph - N/A   Clear
4:53 AM 28.9 °F 21.9 °F 25.0 °F 85% 30.20 in 7.0 mi WSW 6.9 mph - N/A   Clear
5:53 AM 30.0 °F 23.2 °F 25.0 °F 82% 30.20 in 7.0 mi SW 6.9 mph - N/A   Clear
6:53 AM 30.9 °F 24.3 °F 27.0 °F 85% 30.21 in 6.0 mi WSW 6.9 mph - N/A   Clear
7:53 AM 36.0 °F 30.3 °F 30.0 °F 79% 30.23 in 7.0 mi WSW 6.9 mph - N/A   Clear
8:53 AM 41.0 °F 38.0 °F 32.0 °F 70% 30.24 in 10.0 mi West 4.6 mph - N/A   Clear
9:53 AM 44.1 °F 39.5 °F 33.1 °F 65% 30.23 in 10.0 mi SW 8.1 mph - N/A   Clear
10:53 AM 48.0 °F - 32.0 °F 54% 30.23 in 10.0 mi WSW 11.5 mph 16.1 mph N/A   Clear
11:53 AM 51.1 °F - 30.9 °F 46% 30.21 in 10.0 mi West 10.4 mph - N/A   Clear
12:53 PM 52.0 °F - 28.9 °F 41% 30.18 in 10.0 mi WSW 9.2 mph 17.3 mph N/A   Clear
1:53 PM 54.0 °F - 30.0 °F 40% 30.14 in 10.0 mi West 11.5 mph 16.1 mph N/A   Clear
2:53 PM 55.0 °F - 28.0 °F 35% 30.12 in 10.0 mi SSW 8.1 mph - N/A   Clear
3:53 PM 55.0 °F - 28.0 °F 35% 30.09 in 10.0 mi SW 8.1 mph - N/A   Clear
4:53 PM 54.0 °F - 25.0 °F 33% 30.07 in 10.0 mi SSW 6.9 mph - N/A   Clear
5:53 PM 52.0 °F - 32.0 °F 47% 30.05 in 10.0 mi South 10.4 mph - N/A   Clear
6:53 PM 50.0 °F - 28.9 °F 44% 30.07 in 10.0 mi South 4.6 mph - N/A   Clear
7:53 PM 48.0 °F - 30.0 °F 50% 30.06 in 10.0 mi SSW 4.6 mph - N/A   Clear
8:53 PM 48.0 °F - 30.9 °F 52% 30.06 in 10.0 mi South 4.6 mph - N/A   Clear
9:53 PM 48.0 °F - 30.0 °F 50% 30.06 in 10.0 mi SSW 5.8 mph - N/A   Clear
10:53 PM 48.9 °F - 30.0 °F 48% 30.05 in 10.0 mi SSW 8.1 mph - N/A   Clear
11:53 PM 48.9 °F - 30.9 °F 50% 30.02 in 10.0 mi SSW 8.1 mph - N/A   Clear